TimeEDT,TemperatureF,Dew PointF,Humidity,Sea Level PressureIn,VisibilityMPH,Wind Direction,Wind SpeedMPH,Gust SpeedMPH,PrecipitationIn,Events,Conditions,WindDirDegrees,DateUTC
12:15 AM,34.9,30.7,85,29.76,10.0,Calm,Calm,-,N/A,,Clear,0,2013-10-23 04:15:00
12:35 AM,32.5,29.5,88,29.76,10.0,Calm,Calm,-,N/A,,Clear,0,2013-10-23 04:35:00
12:55 AM,32.0,30.0,92,29.76,10.0,Calm,Calm,-,N/A,,Clear,0,2013-10-23 04:55:00
1:15 AM,32.9,30.9,92,29.76,10.0,Calm,Calm,-,N/A,,Clear,0,2013-10-23 05:15:00
1:35 AM,31.3,28.9,91,29.76,7.0,Calm,Calm,-,N/A,,Clear,0,2013-10-23 05:35:00
1:55 AM,31.1,28.9,92,29.76,10.0,Calm,Calm,-,N/A,,Clear,0,2013-10-23 05:55:00
2:15 AM,30.9,28.8,92,29.75,1.2,Calm,Calm,-,N/A,,Mist,0,2013-10-23 06:15:00
2:35 AM,29.8,27.9,92,29.75,7.0,Calm,Calm,-,N/A,,Clear,0,2013-10-23 06:35:00
2:55 AM,29.8,27.9,92,29.74,1.5,Calm,Calm,-,N/A,,Mist,0,2013-10-23 06:55:00
3:15 AM,29.7,27.5,92,29.74,7.0,Calm,Calm,-,N/A,,Clear,0,2013-10-23 07:15:00
3:35 AM,28.4,26.4,92,29.74,7.0,Calm,Calm,-,N/A,,Clear,0,2013-10-23 07:35:00
3:55 AM,30.0,28.0,92,29.74,7.0,Calm,Calm,-,N/A,,Clear,0,2013-10-23 07:55:00
4:15 AM,29.8,27.9,92,29.74,7.0,Calm,Calm,-,N/A,,Clear,0,2013-10-23 08:15:00
4:35 AM,29.3,27.3,92,29.74,7.0,Calm,Calm,-,N/A,,Clear,0,2013-10-23 08:35:00
4:55 AM,29.3,27.5,93,29.74,7.0,West,3.5,-,N/A,,Clear,280,2013-10-23 08:55:00
5:15 AM,30.0,27.9,92,29.74,10.0,Calm,Calm,-,N/A,,Clear,0,2013-10-23 09:15:00
5:35 AM,28.0,25.7,91,29.74,0.2,Calm,Calm,-,N/A,Fog,Light Freezing Fog,0,2013-10-23 09:35:00
5:55 AM,28.4,26.4,92,29.74,0.5,Calm,Calm,-,N/A,Fog,Light Freezing Fog,0,2013-10-23 09:55:00
6:15 AM,28.4,26.2,92,29.73,5.0,Calm,Calm,-,N/A,,Scattered Clouds,0,2013-10-23 10:15:00
6:35 AM,28.4,26.2,92,29.73,0.8,Calm,Calm,-,N/A,,Mostly Cloudy,0,2013-10-23 10:35:00
6:55 AM,28.8,26.6,92,29.72,5.0,Calm,Calm,-,N/A,,Mostly Cloudy,0,2013-10-23 10:55:00
7:15 AM,29.1,27.0,92,29.72,7.0,Calm,Calm,-,N/A,,Overcast,0,2013-10-23 11:15:00
7:35 AM,29.3,27.1,92,29.72,7.0,Calm,Calm,-,N/A,,Overcast,0,2013-10-23 11:35:00
7:55 AM,29.7,27.5,92,29.72,7.0,Calm,Calm,-,N/A,,Overcast,0,2013-10-23 11:55:00
8:15 AM,30.2,28.4,93,29.72,10.0,Calm,Calm,-,N/A,,Overcast,0,2013-10-23 12:15:00
8:35 AM,30.9,28.9,92,29.72,10.0,Calm,Calm,-,N/A,,Mostly Cloudy,0,2013-10-23 12:35:00
8:55 AM,32.0,30.2,93,29.72,10.0,Calm,Calm,-,N/A,,Mostly Cloudy,0,2013-10-23 12:55:00
9:15 AM,33.3,31.6,94,29.73,10.0,Calm,Calm,-,N/A,,Mostly Cloudy,0,2013-10-23 13:15:00
9:35 AM,34.9,32.7,92,29.72,10.0,Calm,Calm,-,N/A,,Scattered Clouds,0,2013-10-23 13:35:00
9:55 AM,36.7,34.5,92,29.72,10.0,Calm,Calm,-,N/A,,Scattered Clouds,0,2013-10-23 13:55:00
10:15 AM,37.9,33.3,83,29.72,10.0,Calm,Calm,-,N/A,,Scattered Clouds,0,2013-10-23 14:15:00
10:35 AM,39.0,32.9,79,29.72,10.0,Calm,Calm,-,N/A,,Mostly Cloudy,0,2013-10-23 14:35:00
10:55 AM,40.1,34.2,79,29.72,10.0,Calm,Calm,-,N/A,,Mostly Cloudy,0,2013-10-23 14:55:00
11:15 AM,41.4,33.3,73,29.71,10.0,Calm,Calm,-,N/A,,Scattered Clouds,0,2013-10-23 15:15:00
11:35 AM,42.3,34.3,74,29.71,10.0,Calm,Calm,-,N/A,,Scattered Clouds,0,2013-10-23 15:35:00
11:55 AM,45.9,34.0,63,29.71,10.0,SSE,4.6,-,N/A,,Clear,150,2013-10-23 15:55:00
12:15 PM,43.9,31.3,61,29.69,10.0,ESE,3.5,-,N/A,,Scattered Clouds,120,2013-10-23 16:15:00
12:35 PM,46.0,31.1,56,29.68,10.0,SW,4.6,-,N/A,,Mostly Cloudy,220,2013-10-23 16:35:00
12:55 PM,46.0,31.3,56,29.67,10.0,SSW,5.8,-,N/A,,Scattered Clouds,200,2013-10-23 16:55:00
1:15 PM,45.9,29.3,52,29.66,10.0,SW,3.5,-,N/A,,Scattered Clouds,220,2013-10-23 17:15:00
1:35 PM,45.7,28.9,52,29.65,10.0,West,4.6,-,N/A,,Mostly Cloudy,260,2013-10-23 17:35:00
1:55 PM,47.7,28.0,47,29.64,10.0,West,8.1,-,N/A,,Mostly Cloudy,280,2013-10-23 17:55:00
2:15 PM,47.1,27.7,47,29.64,10.0,SSW,8.1,-,N/A,,Overcast,200,2013-10-23 18:15:00
2:35 PM,49.1,27.3,43,29.63,10.0,West,4.6,-,N/A,,Overcast,280,2013-10-23 18:35:00
2:55 PM,46.8,26.2,45,29.62,10.0,NW,5.8,-,N/A,,Mostly Cloudy,310,2013-10-23 18:55:00
3:15 PM,47.7,28.8,48,29.61,10.0,West,8.1,-,N/A,,Mostly Cloudy,270,2013-10-23 19:15:00
3:35 PM,45.5,26.6,48,29.61,10.0,West,4.6,-,N/A,,Scattered Clouds,270,2013-10-23 19:35:00
3:55 PM,46.8,26.2,45,29.60,10.0,West,4.6,-,N/A,,Scattered Clouds,280,2013-10-23 19:55:00
4:15 PM,47.8,22.8,37,29.61,10.0,West,10.4,-,N/A,,Scattered Clouds,270,2013-10-23 20:15:00
4:35 PM,47.5,23.5,39,29.62,10.0,WNW,9.2,-,N/A,,Scattered Clouds,290,2013-10-23 20:35:00
4:55 PM,46.0,24.3,42,29.61,10.0,West,5.8,-,N/A,,Clear,280,2013-10-23 20:55:00
5:15 PM,44.8,24.1,44,29.61,10.0,WNW,5.8,-,N/A,,Clear,300,2013-10-23 21:15:00
5:35 PM,43.2,24.1,47,29.62,10.0,WNW,5.8,-,N/A,,Clear,300,2013-10-23 21:35:00
5:55 PM,41.2,23.7,50,29.63,10.0,NW,3.5,-,N/A,,Scattered Clouds,310,2013-10-23 21:55:00
6:15 PM,42.1,23.2,47,29.64,10.0,Calm,Calm,-,N/A,,Mostly Cloudy,0,2013-10-23 22:15:00
6:35 PM,42.4,23.0,46,29.64,10.0,Calm,Calm,-,N/A,,Overcast,0,2013-10-23 22:35:00
6:55 PM,41.5,24.4,51,29.64,10.0,Calm,Calm,-,N/A,,Overcast,0,2013-10-23 22:55:00
7:15 PM,40.6,23.9,51,29.64,10.0,Calm,Calm,-,N/A,,Scattered Clouds,0,2013-10-23 23:15:00
7:35 PM,38.7,25.7,60,29.64,10.0,Calm,Calm,-,N/A,,Mostly Cloudy,0,2013-10-23 23:35:00
7:55 PM,39.6,24.6,55,29.64,10.0,Calm,Calm,-,N/A,,Mostly Cloudy,0,2013-10-23 23:55:00
8:15 PM,38.8,24.4,56,29.64,10.0,WNW,4.6,-,N/A,,Clear,290,2013-10-24 00:15:00
8:35 PM,36.5,25.5,64,29.63,10.0,Calm,Calm,-,N/A,,Clear,0,2013-10-24 00:35:00
8:55 PM,36.1,25.7,66,29.63,10.0,Calm,Calm,-,N/A,,Scattered Clouds,0,2013-10-24 00:55:00
9:15 PM,36.1,25.7,66,29.63,10.0,North,3.5,-,N/A,,Scattered Clouds,350,2013-10-24 01:15:00
9:35 PM,36.3,26.2,67,29.64,10.0,Calm,Calm,-,N/A,,Scattered Clouds,0,2013-10-24 01:35:00
9:55 PM,37.6,27.7,67,29.64,10.0,Calm,Calm,-,N/A,,Overcast,0,2013-10-24 01:55:00
10:15 PM,37.2,27.1,67,29.64,10.0,North,3.5,-,N/A,,Scattered Clouds,360,2013-10-24 02:15:00
10:35 PM,34.7,27.0,73,29.64,10.0,Calm,Calm,-,N/A,,Scattered Clouds,0,2013-10-24 02:35:00
10:55 PM,37.4,26.6,65,29.64,10.0,Calm,Calm,-,N/A,,Scattered Clouds,0,2013-10-24 02:55:00
11:15 PM,36.3,26.6,68,29.64,10.0,Calm,Calm,-,N/A,,Mostly Cloudy,0,2013-10-24 03:15:00
11:35 PM,36.0,27.1,70,29.64,10.0,Calm,Calm,-,N/A,,Mostly Cloudy,0,2013-10-24 03:35:00
11:55 PM,36.7,27.1,68,29.64,10.0,Calm,Calm,-,N/A,,Overcast,0,2013-10-24 03:55:00